EW4725 Weather Reports


time (UTC)temp
C
wind
direction
speed
KPH
gust
KPH
rain 1hr
cm
rain 24hr
cm
rain mn
cm
humidity
%
barometer
mb
20260904170936 23 148 1.6 4.8 0.00 0.00 0.00 69 1013.7
20260904170416 23 170 1.6 4.8 0.00 0.00 0.00 68 1013.7
20260904165936 23 148 6.4 12.9 0.00 0.00 0.00 68 1013.7
20260904165416 23 170 3.2 4.8 0.00 0.00 0.00 69 1013.6
20260904164916 22 148 6.4 11.3 0.00 0.00 0.00 71 1013.6
20260904164416 22 125 8.0 11.3 0.00 0.00 0.00 71 1013.5
20260904163916 22 260 3.2 4.8 0.00 0.00 0.00 71 1013.5
20260904163416 22 148 3.2 6.4 0.00 0.00 0.00 71 1013.4
20260904162916 22 0.0 1.6 0.00 0.00 0.00 72 1013.3
20260904162416 22 125 4.8 9.7 0.00 0.00 0.00 71 1013.4
20260904161915 22 125 4.8 6.4 0.00 0.00 0.00 73 1013.3
20260904161416 22 80 3.2 4.8 0.00 0.00 0.00 73 1013.3
20260904160916 22 0.0 1.6 0.00 0.00 0.00 73 1013.3
20260904160416 22 125 6.4 8.0 0.00 0.00 0.00 74 1013.3
20260904155916 22 0.0 1.6 0.00 0.00 0.00 76 1013.1
20260904155415 22 125 1.6 3.2 0.00 0.00 0.00 77 1013.2
20260904154916 21 103 1.6 1.6 0.00 0.00 0.00 77 1013.2
20260904154456 21 0.0 1.6 0.00 0.00 0.00 78 1013.1
20260904153936 21 125 3.2 6.4 0.00 0.00 0.00 78 1013.0
20260904153435 21 58 3.2 4.8 0.00 0.00 0.00 80 1013.1
20260904152936 21 58 4.8 6.4 0.00 0.00 0.00 80 1013.1
20260904152416 20 148 3.2 6.4 0.00 0.00 0.00 81 1013.2
20260904151916 20 103 4.8 6.4 0.00 0.00 0.00 82 1013.2
20260904151420 20 125 6.4 9.7 0.00 0.00 0.00 82 1013.2
20260904150915 20 148 3.2 12.9 0.00 0.00 0.00 82 1013.2
20260904150415 20 125 4.8 8.0 0.00 0.00 0.00 83 1013.1
20260904145916 20 103 4.8 8.0 0.00 0.00 0.00 83 1013.1
20260904145415 20 125 4.8 4.8 0.00 0.00 0.00 84 1013.0
20260904144915 19 103 4.8 6.4 0.00 0.00 0.00 85 1013.0
20260904144416 19 148 4.8 8.0 0.00 0.00 0.00 86 1013.0
20260904143915 18 125 4.8 8.0 0.00 0.00 0.00 86 1012.9
20260904143455 18 80 4.8 6.4 0.00 0.00 0.00 87 1012.9
20260904142915 18 80 3.2 8.0 0.00 0.00 0.00 88 1012.9
20260904142415 18 80 1.6 8.0 0.00 0.00 0.00 88 1012.8
20260904141915 18 58 3.2 4.8 0.00 0.00 0.00 89 1012.7
20260904141416 18 58 3.2 4.8 0.00 0.00 0.00 89 1012.7
20260904140916 17 0.0 1.6 0.00 0.00 0.00 89 1012.6
20260904140435 17 0.0 1.6 0.00 0.00 0.00 89 1012.6
20260904135915 17 125 1.6 3.2 0.00 0.00 0.00 89 1012.5
20260904135416 17 0.0 1.6 0.00 0.00 0.00 89 1012.4
20260904134915 17 0.0 0.0 0.00 0.00 0.00 89 1012.4
20260904134436 17 0.0 1.6 0.00 0.00 0.00 89 1012.4
20260904133915 17 125 1.6 4.8 0.00 0.00 0.00 89 1012.4
20260904133415 17 125 1.6 3.2 0.00 0.00 0.00 89 1012.4
20260904132936 17 0.0 0.0 0.00 0.00 0.00 89 1012.4
20260904132415 17 125 3.2 4.8 0.00 0.00 0.00 90 1012.4
20260904131935 17 0.0 1.6 0.00 0.00 0.00 90 1012.4
20260904131416 17 0.0 1.6 0.00 0.00 0.00 90 1012.5
20260904130915 17 103 1.6 1.6 0.00 0.00 0.00 89 1012.4
20260904130415 17 80 1.6 1.6 0.00 0.00 0.00 90 1012.4
20260904125915 17 80 1.6 3.2 0.00 0.00 0.00 90 1012.3
20260904125415 17 80 1.6 3.2 0.00 0.00 0.00 90 1012.3
20260904124915 17 80 1.6 3.2 0.00 0.00 0.00 90 1012.2
20260904124415 17 0.0 3.2 0.00 0.00 0.00 90 1012.2
20260904123915 17 125 1.6 3.2 0.00 0.00 0.00 90 1012.2
20260904123416 17 0.0 0.0 0.00 0.00 0.00 90 1012.0
20260904122915 17 0.0 1.6 0.00 0.00 0.00 90 1012.1
20260904122415 17 0.0 1.6 0.00 0.00 0.00 90 1012.0
20260904121915 17 0.0 1.6 0.00 0.00 0.00 90 1012.0
20260904121415 17 125 3.2 6.4 0.00 0.00 0.00 90 1012.0
20260904120915 17 0.0 0.0 0.00 0.00 0.00 90 1012.0
20260904120416 17 0.0 1.6 0.00 0.00 0.00 90 1011.9
20260904115915 17 0.0 0.0 0.00 0.00 0.00 90 1012.0
20260904115415 18 0.0 0.0 0.00 0.00 0.00 90 1012.1
20260904114935 18 125 1.6 3.2 0.00 0.00 0.00 90 1012.1
20260904114415 18 125 3.2 3.2 0.00 0.00 0.00 90 1012.0
20260904113915 18 0.0 1.6 0.00 0.00 0.00 90 1012.0
20260904113435 18 0.0 1.6 0.00 0.00 0.00 90 1012.0
20260904113015 18 0.0 0.0 0.00 0.00 0.00 90 1012.0
20260904112455 18 125 1.6 1.6 0.00 0.00 0.00 90 1012.0
20260904111915 18 0.0 1.6 0.00 0.00 0.00 90 1012.0
20260904111417 18 0.0 0.0 0.00 0.00 0.00 90 1012.0
20260904110938 18 0.0 0.0 0.00 0.00 0.00 90 1012.0
20260904110417 18 0.0 0.0 0.00 0.00 0.00 90 1012.0
20260904105915 18 0.0 0.0 0.00 0.00 0.00 90 1012.0
20260904105417 18 0.0 0.0 0.00 0.00 0.00 90 1012.0
20260904104917 18 0.0 0.0 0.00 0.00 0.00 90 1012.0
20260904104437 18 0.0 0.0 0.00 0.00 0.00 90 1012.0
20260904103935 18 0.0 0.0 0.00 0.00 0.00 90 1012.0
20260904103417 18 0.0 0.0 0.00 0.00 0.00 90 1012.0
20260904102917 18 0.0 0.0 0.00 0.00 0.00 90 1012.0
20260904102417 18 0.0 1.6 0.00 0.00 0.00 90 1011.9
20260904101917 18 0.0 0.0 0.00 0.00 0.00 90 1011.9
20260904101417 18 0.0 0.0 0.00 0.00 0.00 90 1011.9
20260904100937 18 0.0 0.0 0.00 0.00 0.00 90 1011.9
20260904100417 18 0.0 0.0 0.00 0.00 0.00 90 1011.9
20260904095917 18 0.0 0.0 0.00 0.00 0.00 91 1011.9
20260904095457 18 0.0 0.0 0.00 0.00 0.00 91 1011.9
20260904094917 18 0.0 0.0 0.00 0.00 0.00 90 1012.0
20260904094417 18 0.0 0.0 0.00 0.00 0.00 91 1011.9
20260904093917 18 0.0 0.0 0.00 0.00 0.00 91 1012.0
20260904093417 17 0.0 0.0 0.00 0.00 0.00 91 1012.0
20260904092917 18 0.0 0.0 0.00 0.00 0.00 91 1012.0
20260904092417 18 0.0 0.0 0.00 0.00 0.00 91 1011.9
20260904091917 18 0.0 0.0 0.00 0.00 0.00 92 1012.0
20260904091417 17 0.0 0.0 0.00 0.00 0.00 92 1012.0
20260904090917 17 0.0 0.0 0.00 0.00 0.00 92 1012.0
20260904090417 17 0.0 0.0 0.00 0.00 0.00 92 1011.9
20260904085917 17 0.0 0.0 0.00 0.00 0.00 92 1011.9
20260904085417 17 0.0 0.0 0.00 0.00 0.00 92 1012.0
20260904084917 17 0.0 0.0 0.00 0.00 0.00 91 1012.0
20260904084417 17 0.0 0.0 0.00 0.00 0.00 92 1012.1
20260904083917 17 0.0 0.0 0.00 0.00 0.00 91 1012.1
20260904083417 17 0.0 0.0 0.00 0.00 0.00 91 1012.1
20260904082917 17 0.0 0.0 0.00 0.00 0.00 91 1012.1
20260904082417 17 0.0 0.0 0.00 0.00 0.00 92 1012.1
20260904081917 17 0.0 0.0 0.00 0.00 0.00 91 1012.2
20260904081417 17 0.0 0.0 0.00 0.00 0.00 91 1012.1
20260904080917 17 0.0 0.0 0.00 0.00 0.00 90 1012.1
20260904080417 17 0.0 0.0 0.00 0.00 0.00 91 1012.1
20260904075917 17 0.0 0.0 0.00 0.00 0.00 91 1012.2
20260904075437 17 0.0 0.0 0.00 0.00 0.00 91 1012.1
20260904074917 17 0.0 0.0 0.00 0.00 0.00 91 1012.2
20260904074417 17 0.0 0.0 0.00 0.00 0.00 91 1012.2
20260904073917 17 0.0 0.0 0.00 0.00 0.00 90 1012.1
20260904073417 17 0.0 0.0 0.00 0.00 0.00 90 1012.1
20260904072937 17 0.0 0.0 0.00 0.00 0.00 90 1012.1
20260904072417 18 0.0 0.0 0.00 0.00 0.00 90 1012.2
20260904071937 18 0.0 0.0 0.00 0.00 0.00 90 1012.2
20260904071417 18 0.0 0.0 0.00 0.00 0.00 90 1012.1
20260904070917 18 0.0 0.0 0.00 0.00 0.00 90 1012.1
20260904070417 18 0.0 0.0 0.00 0.00 0.00 90 1012.2
20260904065915 18 0.0 0.0 0.00 0.00 0.00 90 1012.1
20260904065435 18 0.0 0.0 0.00 0.00 0.00 89 1012.1
20260904064935 18 0.0 0.0 0.00 0.00 0.00 88 1012.0
20260904064415 18 0.0 0.0 0.00 0.00 0.00 88 1012.0
20260904063935 18 0.0 0.0 0.00 0.00 0.00 88 1012.1
20260904063415 18 0.0 0.0 0.00 0.00 0.00 88 1012.1
20260904062935 18 0.0 0.0 0.00 0.00 0.00 88 1012.1
20260904062415 18 0.0 0.0 0.00 0.00 0.00 88 1012.1
20260904061919 18 0.0 0.0 0.00 0.00 0.00 87 1012.0
20260904061415 18 0.0 0.0 0.00 0.00 0.00 87 1012.0
20260904060917 19 0.0 0.0 0.00 0.00 0.00 87 1012.0
20260904060417 19 0.0 0.0 0.00 0.00 0.00 86 1011.9
20260904055937 19 0.0 0.0 0.00 0.00 0.00 86 1011.9
20260904055415 19 0.0 0.0 0.00 0.00 0.00 86 1011.9
20260904054917 19 0.0 0.0 0.00 0.00 0.00 86 1011.9
20260904054417 19 0.0 0.0 0.00 0.00 0.00 86 1011.9
20260904053917 20 305 1.6 3.2 0.00 0.00 0.00 86 1011.9
20260904053415 20 0.0 1.6 0.00 0.00 0.00 86 1012.0
20260904052917 20 0.0 0.0 0.00 0.00 0.00 86 1011.9
20260904052417 20 0.0 1.6 0.00 0.00 0.00 86 1012.0
20260904051917 20 0.0 0.0 0.00 0.00 0.00 85 1012.1
20260904051417 20 0.0 0.0 0.00 0.00 0.00 85 1012.1
20260904050917 20 0.0 0.0 0.00 0.00 0.00 85 1012.1
20260904050417 20 0.0 1.6 0.00 0.00 0.00 85 1012.1
20260904045917 20 283 3.2 6.4 0.00 0.00 0.00 85 1012.1
20260904045417 20 260 1.6 3.2 0.00 0.00 0.00 84 1012.0
20260904044937 20 283 3.2 6.4 0.00 0.00 0.00 84 1012.0
20260904044437 20 283 4.8 6.4 0.00 0.00 0.00 84 1012.0
20260904043937 20 305 3.2 6.4 0.00 0.00 0.00 83 1012.0
20260904043417 20 260 1.6 3.2 0.00 0.00 0.00 83 1011.9
20260904042917 20 260 3.2 6.4 0.00 0.00 0.00 83 1011.9
20260904042417 20 260 4.8 9.7 0.00 0.00 0.00 83 1011.9
20260904041917 20 283 3.2 4.8 0.00 0.00 0.00 83 1011.9
20260904041417 20 283 3.2 3.2 0.00 0.00 0.00 83 1011.8
20260904040917 20 283 1.6 3.2 0.00 0.00 0.00 83 1011.8
20260904040417 20 260 3.2 4.8 0.00 0.00 0.00 83 1011.7
20260904040037 20 283 4.8 9.7 0.00 0.00 0.00 83 1011.7
20260904035417 20 283 1.6 3.2 0.00 0.00 0.00 82 1011.7
20260904034917 20 283 4.8 9.7 0.00 0.00 0.00 82 1011.7
20260904034437 20 260 4.8 6.4 0.00 0.00 0.00 82 1011.5
20260904033917 20 305 4.8 8.0 0.00 0.00 0.00 82 1011.5
20260904033417 20 283 4.8 9.7 0.00 0.00 0.00 83 1011.5
20260904032917 20 283 3.2 6.4 0.00 0.00 0.00 83 1011.4
20260904032437 20 260 4.8 9.7 0.00 0.00 0.00 83 1011.3
20260904031917 20 283 4.8 8.0 0.00 0.00 0.00 82 1011.3
20260904031417 20 260 6.4 8.0 0.00 0.00 0.00 82 1011.3
20260904030917 20 283 4.8 8.0 0.00 0.00 0.00 81 1011.2
20260904030417 21 260 6.4 9.7 0.00 0.00 0.00 81 1011.2
20260904025917 21 283 4.8 6.4 0.00 0.00 0.00 81 1011.2
20260904025417 21 305 6.4 9.7 0.00 0.00 0.00 80 1011.1
20260904024917 21 283 3.2 4.8 0.00 0.00 0.00 79 1011.0
20260904024417 21 283 8.0 12.9 0.00 0.00 0.00 77 1011.0
20260904023916 21 283 3.2 4.8 0.00 0.00 0.00 76 1011.1
20260904023417 21 305 8.0 12.9 0.00 0.00 0.00 75 1011.1
20260904022917 21 283 6.4 8.0 0.00 0.00 0.00 74 1011.1
20260904022417 21 260 6.4 9.7 0.00 0.00 0.00 73 1011.1
20260904021917 21 283 6.4 8.0 0.00 0.00 0.00 70 1011.1
20260904021417 21 260 9.7 12.9 0.00 0.00 0.00 68 1011.1
20260904020917 22 283 8.0 11.3 0.00 0.00 0.00 69 1011.1
20260904020417 22 260 8.0 11.3 0.00 0.00 0.00 70 1011.1
20260904015917 22 283 4.8 6.4 0.00 0.00 0.00 70 1011.0
20260904015437 22 283 4.8 8.0 0.00 0.00 0.00 70 1011.1
20260904014917 22 260 8.0 11.3 0.00 0.00 0.00 68 1011.1
20260904014417 22 283 6.4 9.7 0.00 0.00 0.00 67 1011.1
20260904013917 22 305 6.4 11.3 0.00 0.00 0.00 65 1011.2
20260904013456 23 283 6.4 9.7 0.00 0.00 0.00 65 1011.2
20260904012917 23 283 6.4 9.7 0.00 0.00 0.00 64 1011.2
20260904012417 23 283 8.0 12.9 0.00 0.00 0.00 63 1011.2
20260904011916 23 283 8.0 14.5 0.00 0.00 0.00 63 1011.1
20260904011417 23 283 4.8 6.4 0.00 0.00 0.00 64 1011.2
20260904010916 23 283 9.7 11.3 0.00 0.00 0.00 64 1011.1
20260904010417 23 305 6.4 11.3 0.00 0.00 0.00 66 1011.1
20260904005917 23 238 9.7 12.9 0.00 0.00 0.00 68 1011.1
20260904005417 23 283 11.3 12.9 0.00 0.00 0.00 68 1011.1
20260904004937 23 260 11.3 14.5 0.00 0.00 0.00 67 1011.1
20260904004416 24 283 11.3 14.5 0.00 0.00 0.00 66 1011.2
20260904003916 24 260 8.0 14.5 0.00 0.00 0.00 67 1011.1
20260904003417 24 283 9.7 14.5 0.00 0.00 0.00 66 1011.1
20260904002917 25 260 12.9 17.7 0.00 0.00 0.00 65 1011.1
20260904002416 25 305 8.0 11.3 0.00 0.00 0.00 65 1011.1
20260904001917 25 283 9.7 12.9 0.00 0.00 0.00 64 1011.1
20260904001416 25 260 9.7 17.7 0.00 0.00 0.00 63 1011.1
20260904000936 25 283 9.7 16.1 0.00 0.00 0.00 62 1011.2
20260904000417 25 305 6.4 9.7 0.00 0.00 0.00 62 1011.2
20260903235917 26 260 9.7 14.5 0.00 0.00 0.00 60 1011.2
20260903235417 26 305 3.2 8.0 0.00 0.00 0.00 60 1011.2
20260903234937 26 283 8.0 14.5 0.00 0.00 0.00 60 1011.3
20260903234416 26 170 3.2 8.0 0.00 0.00 0.00 60 1011.3
20260903233917 26 260 1.6 4.8 0.00 0.00 0.00 60 1011.3
20260903233417 26 238 8.0 11.3 0.00 0.00 0.00 60 1011.3
20260903232956 26 238 3.2 6.4 0.00 0.00 0.00 62 1011.3
20260903232416 26 125 8.0 16.1 0.00 0.00 0.00 61 1011.4
20260903231916 26 148 4.8 9.7 0.00 0.00 0.00 62 1011.5
20260903231416 26 215 3.2 6.4 0.00 0.00 0.00 62 1011.5
20260903230917 26 170 4.8 11.3 0.00 0.00 0.00 61 1011.6
20260903230416 26 260 4.8 9.7 0.00 0.00 0.00 61 1011.6
20260903225916 26 125 6.4 12.9 0.00 0.00 0.00 62 1011.7
20260903225457 26 148 6.4 11.3 0.00 0.00 0.00 62 1011.7
20260903224916 26 125 6.4 11.3 0.00 0.00 0.00 61 1011.7
20260903224416 26 170 4.8 8.0 0.00 0.00 0.00 62 1011.7
20260903223916 26 283 3.2 6.4 0.00 0.00 0.00 61 1011.8
20260903223416 26 125 8.0 12.9 0.00 0.00 0.00 61 1011.8
20260903222916 26 148 3.2 4.8 0.00 0.00 0.00 60 1011.9
20260903222436 26 170 6.4 11.3 0.00 0.00 0.00 60 1012.0
20260903221916 26 170 4.8 11.3 0.00 0.00 0.00 61 1012.1
20260903221417 26 148 9.7 19.3 0.00 0.00 0.00 61 1012.1
20260903220917 26 148 6.4 9.7 0.00 0.00 0.00 61 1012.1
20260903220436 26 193 8.0 11.3 0.00 0.00 0.00 61 1012.2
20260903215936 26 238 6.4 9.7 0.00 0.00 0.00 61 1012.3
20260903215416 26 170 4.8 11.3 0.00 0.00 0.00 61 1012.3
20260903214916 26 238 3.2 8.0 0.00 0.00 0.00 62 1012.3
20260903214416 26 170 4.8 11.3 0.00 0.00 0.00 62 1012.4
20260903213916 25 148 8.0 11.3 0.00 0.00 0.00 62 1012.4
20260903213416 25 125 9.7 12.9 0.00 0.00 0.00 63 1012.4
20260903212916 25 148 8.0 11.3 0.00 0.00 0.00 62 1012.4
20260903212416 26 125 8.0 9.7 0.00 0.00 0.00 60 1012.4
20260903211916 26 193 6.4 8.0 0.00 0.00 0.00 61 1012.4
20260903211416 26 148 4.8 9.7 0.00 0.00 0.00 59 1012.4
20260903210936 25 215 8.0 12.9 0.00 0.00 0.00 60 1012.5
20260903210416 25 283 6.4 8.0 0.00 0.00 0.00 59 1012.6
20260903205936 25 193 6.4 12.9 0.00 0.00 0.00 61 1012.6
20260903205416 26 148 4.8 8.0 0.00 0.00 0.00 61 1012.6
20260903204916 25 148 8.0 12.9 0.00 0.00 0.00 62 1012.7
20260903204457 25 260 8.0 11.3 0.00 0.00 0.00 62 1012.8
20260903203916 26 148 9.7 14.5 0.00 0.00 0.00 62 1012.7
20260903203416 26 148 9.7 12.9 0.00 0.00 0.00 60 1012.7
20260903202916 26 148 8.0 12.9 0.00 0.00 0.00 61 1012.8
20260903202416 26 148 9.7 16.1 0.00 0.00 0.00 59 1012.9
20260903201916 26 148 8.0 11.3 0.00 0.00 0.00 59 1012.8
20260903201436 26 238 6.4 11.3 0.00 0.00 0.00 61 1013.0
20260903200936 25 148 6.4 9.7 0.00 0.00 0.00 59 1013.0
20260903200416 25 215 6.4 11.3 0.00 0.00 0.00 59 1013.1
20260903195916 26 125 8.0 11.3 0.00 0.00 0.00 60 1013.1
20260903195416 25 148 8.0 11.3 0.00 0.00 0.00 61 1013.1
20260903194916 25 170 8.0 11.3 0.00 0.00 0.00 61 1013.1
20260903194416 25 170 9.7 14.5 0.00 0.00 0.00 62 1013.2
20260903193936 25 125 4.8 9.7 0.00 0.00 0.00 60 1013.3
20260903193416 25 148 9.7 14.5 0.00 0.00 0.00 61 1013.4
20260903192916 25 170 8.0 12.9 0.00 0.00 0.00 59 1013.5
20260903192416 26 238 4.8 8.0 0.00 0.00 0.00 59 1013.5
20260903191916 26 238 6.4 11.3 0.00 0.00 0.00 59 1013.6
20260903191416 26 125 1.6 6.4 0.00 0.00 0.00 61 1013.6
20260903190916 26 148 11.3 16.1 0.00 0.00 0.00 60 1013.6
20260903190416 26 215 6.4 11.3 0.00 0.00 0.00 60 1013.7
20260903185916 25 125 1.6 3.2 0.00 0.00 0.00 62 1013.7
20260903185436 25 283 8.0 11.3 0.00 0.00 0.00 61 1013.8
20260903184916 25 215 6.4 11.3 0.00 0.00 0.00 62 1014.0
20260903184416 25 148 3.2 4.8 0.00 0.00 0.00 64 1014.1
20260903183916 24 215 4.8 11.3 0.00 0.00 0.00 65 1014.1
20260903183436 24 148 4.8 6.4 0.00 0.00 0.00 65 1014.1
20260903182916 24 170 4.8 8.0 0.00 0.00 0.00 66 1014.2
20260903182416 24 103 9.7 11.3 0.00 0.00 0.00 66 1014.2
20260903181916 24 125 9.7 16.1 0.00 0.00 0.00 65 1014.3
20260903181416 24 125 4.8 9.7 0.00 0.00 0.00 65 1014.3
20260903180916 24 125 4.8 9.7 0.00 0.00 0.00 66 1014.3
20260903180416 23 125 6.4 16.1 0.00 0.00 0.00 68 1014.2
20260903175936 23 148 9.7 12.9 0.00 0.00 0.00 68 1014.1
20260903175416 24 125 6.4 9.7 0.00 0.00 0.00 66 1014.2
20260903174916 24 125 3.2 9.7 0.00 0.00 0.00 66 1014.2
20260903174416 24 193 4.8 8.0 0.00 0.00 0.00 66 1014.2
20260903173916 24 148 4.8 8.0 0.00 0.00 0.00 67 1014.2
20260903173416 24 125 6.4 11.3 0.00 0.00 0.00 66 1014.2
20260903172916 24 35 1.6 4.8 0.00 0.00 0.00 68 1014.3
20260903172416 23 103 8.0 11.3 0.00 0.00 0.00 67 1014.3
20260903171918 23 148 4.8 6.4 0.00 0.00 0.00 68 1014.3
20260903171416 23 125 11.3 16.1 0.00 0.00 0.00 67 1014.3